Hourly Data Report for July 23, 2006

TORONTO CITY
ONTARIO

43°40'00.000" N
79°24'00.000" W
112.50 m
6158355
71508
XTO

Download Data

Hourly Data (July 2006)
Hourly Data Report for July 23, 2006
TIME
LST
Temp Definition
°C
Dew Point Definition
°C
Rel Hum Definition
%
Precip. Amount Definition
mm

Wind Dir Definition
10's deg

Wind Spd Definition
km/h
Visibility Definition
km
Stn Press Definition
kPa
Hmdx Definition


Wind Chill Definition


Weather Definition


00:00 17.3 16.6 96   LegendMM LegendMM   99.80     LegendNANA
01:00 16.8 16.2 96   LegendMM LegendMM   99.80     LegendNANA
02:00 16.3 15.6 96   LegendMM LegendMM   99.78     LegendNANA
03:00 16.4 15.8 96   LegendMM LegendMM   99.80     LegendNANA
04:00 16.5 15.2 92   LegendMM LegendMM   99.81     LegendNANA
05:00 16.1 15.3 95   LegendMM LegendMM   99.84     LegendNANA
06:00 16.6 15.2 91   LegendMM LegendMM   99.88     LegendNANA
07:00 18.7 16.2 85   LegendMM LegendMM   99.92     LegendNANA
08:00 20.3 15.5 74   LegendMM LegendMM   99.95 25   LegendNANA
09:00 21.5 15.6 69   LegendMM LegendMM   99.92 26   LegendNANA
10:00 22.5 16.7 70   LegendMM LegendMM   99.92 28   LegendNANA
11:00 23.5 16.3 64   LegendMM LegendMM   99.93 28   LegendNANA
12:00 24.0 16.1 61   LegendMM LegendMM   99.91 29   LegendNANA
13:00 19.9 15.4 75   LegendMM LegendMM   100.03     LegendNANA
14:00 19.2 17.2 88   LegendMM LegendMM   99.97     LegendNANA
15:00 20.6 15.7 73   LegendMM LegendMM   99.96 25   LegendNANA
16:00 21.6 15.5 68   LegendMM LegendMM   99.93 26   LegendNANA
17:00 21.2 15.1 68   LegendMM LegendMM   99.98 25   LegendNANA
18:00 20.9 15.1 69   LegendMM LegendMM   99.95 25   LegendNANA
19:00 20.3 15.5 74   LegendMM LegendMM   99.92 25   LegendNANA
20:00 19.1 14.7 76   LegendMM LegendMM   99.94     LegendNANA
21:00 19.3 14.9 76   LegendMM LegendMM   99.99     LegendNANA
22:00 19.4 14.9 75   LegendMM LegendMM   99.98     LegendNANA
23:00 18.5 15.5 83   LegendMM LegendMM   100.01     LegendNANA

Notes on Data Quality.

Legend

  • E = Estimated
  • M = Missing
  • NA = Not Available*
  • [empty] = Indicates an unobserved value
Date modified: